Location: Anuling
(14.1239°N, 120.8922°E)
Time: 04:24:45
(UTC+00:00)

OAO 3 Rocket - Pass Details

Date: 14 January 2026
Orbit: 614 x 660 km, 35.0° (Epoch: 7 February)

Event Time Altitude Azimuth Distance (km) Brightness Sun altitude
Rises 10:56:02 0° 319° (NW) 2,971 6.9 -16.6°
Reaches altitude 10° 10:58:50 10° 334° (NNW) 2,056 5.8 -17.3°
Enters shadow 11:02:28 23° 24° (NNE) 1,382 4.5 -18.1°
